Flag for U.S.A. Weather past 2 weeks in Grand Rapids, Michigan, U.S.A.

Now
81 °F

Passing clouds.


Feels Like: 85 °F
Forecast: 71 / 86 °F
Wind: 9 mph from West

Location: Kent County International Airport

Current Time: Sep 2, 2015 at 11:33:26 AM

Latest Report: Sep 2, 2015 at 10:53 AM


Visibility: 8 mi

Pressure: 30.03 "Hg

Humidity: 72%

Dew point: 71 °F

Location of Grand RapidsLocation

Historic Weather in Grand Rapids — Graph

°F

Grand Rapids temperature yesterday

Maximum temperature yesterday: 87 °F (at 2:53 PM)
Minimum temperature yesterday: 64 °F (at 3:53 AM)
Average temperature yesterday: 75 °F

Past Weeks' High & Low Weather Summary

 TemperatureHumidityPressure
High87 °F (Sep 1, 2:53 PM)100% (Aug 23, 3:03 PM)30.24 "Hg (Aug 23, 3:03 PM)
Low52 °F (Aug 27, 4:53 AM)44% (Aug 21, 11:53 AM)29.67 "Hg (Aug 19, 5:53 PM)
Average67 °F80%30.00 "Hg
* Reported Aug 18 9:53 AM — Sep 2 9:53 AM, Grand Rapids, Weather by CustomWeather, © 2015

Note: Actual official high and low records may vary slightly from our data, if they occured in-between our weather recording intervals... More about our weather records

Advertising

Grand Rapids weather history for previous 24 hours

 ConditionsComfort  
Time TempWeatherWind HumidityBarometerVisibility
9:53 AM
Wed, Sep 2
79 °FPartly sunny.9 mph77%30.03 "Hg8 mi
8:53 AM75 °FPartly sunny.9 mph85%30.04 "Hg7 mi
7:53 AM73 °FFog.9 mph90%30.01 "Hg6 mi
6:53 AM73 °FPassing clouds.7 mph90%30.01 "Hg7 mi
5:53 AM72 °FPassing clouds.5 mph93%30.00 "Hg7 mi
4:53 AM73 °FPassing clouds.8 mph94%30.00 "Hg7 mi
3:53 AM73 °FFog.6 mph94%30.00 "Hg6 mi
2:53 AM73 °FPassing clouds.3 mph94%30.01 "Hg7 mi
1:53 AM75 °FPassing clouds.6 mph88%30.03 "Hg8 mi
12:53 AM74 °FPassing clouds.6 mph91%30.03 "Hg7 mi
11:53 PM
Tue, Sep 1
74 °FClear.7 mph88%30.03 "Hg7 mi
10:53 PM74 °FFog.6 mph94%30.03 "Hg5 mi
9:53 PM76 °FFog.3 mph88%30.02 "Hg6 mi
8:53 PM78 °FPassing clouds.5 mph84%30.02 "Hg8 mi
7:53 PM82 °FPassing clouds.10 mph77%30.01 "Hg7 mi
6:53 PM84 °FScattered clouds.8 mph65%30.00 "Hg9 mi
4:53 PM87 °FScattered clouds.10 mph59%30.00 "Hg10 mi
3:53 PM87 °FScattered clouds.8 mph57%30.01 "Hg10 mi
2:53 PM87 °FBroken clouds.9 mph59%30.03 "Hg10 mi
1:53 PM86 °FScattered clouds.12 mph61%30.04 "Hg10 mi
12:53 PM85 °FScattered clouds.7 mph65%30.05 "Hg9 mi
11:53 AM83 °FPassing clouds.7 mph72%30.06 "Hg8 mi
Weather by CustomWeather, © 2015

See weather overviewHow to use our weather pages